Weather in Lesnoy Vyas

Russia / Penza Oblast     53°46′28″N   45°28′21″E
temp.,
°C
wind,
m/s
gust,
m/s
humid.,
%
clouds,
%
prec.,
mm/h
press.,
hPa
HPBL,
m
2 december, thu
thu200:00−2wsw5107269 0.0 997891
03:00−2sw510775 0.0 998628
06:00−1sw61183100 0.1 999931
09:00−2w6106666 0.3 10021177
12:00−2w6958100 0.0 10051268
15:00−3wsw596442 0.0 10061013
18:00−4wsw51162100 0.0 1008785
21:00−3sw5116580 0.0 1008638
3 december, fri
fri300:00−3ssw61487100 0.1 1008681
03:00−2sw61394100 0.7 1007661
06:00−1sw6149799 0.6 1007559
09:00+1sw61498100 1.1 1008570
12:00+2sw61496100 0.0 1010603
15:00+2sw61294100 0.0 1011570
18:00+2ssw41196100 0.0 1012427
21:00+3s51497100 0.0 1011474
4 december, sat
sat400:00+3ssw71695100 0.0 1010583
03:00+4ssw8198543 0.0 1009699
06:00+3s81977100 0.0 1007675
09:00+3ssw81787100 0.6 1007878
12:00+2sw61198100 2.9 1008761
15:000wsw3795100 4.4 1010488
18:00−1sw3691100 0.0 1011213
21:00−2wsw3885100 0.0 1013306
5 december, sun
sun500:00−3w378972 0.0 1014279
03:00−3w478897 0.0 1015580
06:00−3w377558 0.0 1016792
09:00−3w3782100 0.0 1019651
12:00−2wnw4671100 0.0 1020726
15:00−2wnw24745 0.0 1021300
18:00−3wnw12815 0.0 102249
21:00−3wnw118262 0.0 102317
6 december, mon
mon600:00−3n1181100 0.0 102544
03:00−4ene1181100 0.0 102630
06:00−4ene1281100 0.0 102649
09:00−4ene2474100 0.0 1028231
12:00−3e346799 0.0 1028363
15:00−3e3672100 0.0 1029326
18:00−4e487884 0.0 1030311
21:00−3ese41078100 0.0 1030396